SCP
-0 -0 -0 -0 -0 0 0 0 0 0 0 0 0 0 0 0 0 0 0 0 0 0 0 0 0 0 0
0 0 0 0 0 0 0 0 0 0 0 0 0 0 0 0 0 0 0 0 0 0 0 0 0 0 0
0 0 0 0 0 0 0 0 0 0 0 0 0 0 0 0 0 0 0 0 0 0 0 0 0 0 0
0 0 0 0 0 0 0 0 0 0 0 0 0 0 0 0 0 0 0 0 0 0 0 0 0 0 0
0 0 -0 0 0 0 0 0 0 0 0 0 0 0 0 0 0 0 0 0 0 0 0 0 0 0 0
0 -0 0 0 0 0 0 0 0 0 0 0 0 0 0 0 0 0 0 0 0 0 0 0 0 0 0
0 0 0 0 0 0 0 0 0 0 0 0 0 0 0 0 0 0 0 0 0 0 0 0 0 0 0
0 0 0 0 0 0 0 0 0 0 0 0 0 0 0 0 0 0 0 0 0 0 0 0 0 0 0
0 0 0 0 0 0 0 0 0 0 0 0 0 0 0 0 0 0 0 0 0 0 0 0 0 0 0
0 0 0 0 0 0 0 0 0 0 0 0 0 0 0 0 0 0 0 0 0 0 0 0 0 0 0
0 0 0 0 0 0 0 0 0 0 0 0 0 0 0 0 0 0 0 0 0 0 0 0 0 0 0
0 0 0 0 0 0 0 0 0 0 0 0 0 0 0 0 0 0 0 0 0 0 0 0 0 0 0
0 0 0 0 0 0 0 0 0 0 0 0 0 0 0 0 0 0 0 0 0 0 0 0 0 0 0
0 0 0 0 0 0 0 0 0 0 0 0 0 0 0 0 0 0 0 0 0 0 0 0 0 0 0
0 0 0 0 0 0 0 0 0 0 0 0 0 0 0 0 0 0 0 0 0 0 0 0 0 0 0
0 0 0 0 0 0 0 0 0 0 0 0 0 0 0 0 0 0 0 0 0 0 0 0 0 0 0
Wind_Speed_500mb
16 15 13 11 9 8 6 6 7 6 8 9 10 10 11 11 12 13 13 14 16 17 17 15 15 10 8
14 12 9 7 6 6 4 3 3 2 3 7 7 9 12 13 13 13 14 16 16 17 17 16 16 7 9
14 10 7 6 5 4 3 2 1 2 2 8 6 12 13 12 12 12 14 15 18 16 17 15 13 12 12
11 2 6 5 7 4 4 3 2 1 4 7 12 17 17 19 13 12 18 19 21 20 18 17 9 8 15
7 2 12 3 2 4 4 7 5 5 3 2 15 18 20 20 19 18 21 19 18 20 21 20 16 11 14
8 7 6 4 6 13 8 9 5 7 11 13 18 19 23 22 19 17 18 18 20 22 24 23 20 17 16
12 11 9 7 7 15 5 11 14 10 14 16 18 23 25 24 22 21 20 22 26 24 22 20 19 17 18
10 12 17 18 14 11 11 19 21 24 26 24 25 26 27 26 24 25 27 29 28 23 17 16 16 14 16
26 22 22 25 23 22 24 20 19 24 26 29 31 32 31 30 27 22 24 21 20 17 19 20 19 13 21
32 27 21 21 23 26 30 32 33 29 27 27 29 29 31 32 30 28 24 21 20 21 21 22 25 26 27
28 24 22 20 20 22 26 28 28 28 29 29 30 25 24 21 14 13 17 17 19 17 12 12 18 21 21
28 25 20 19 20 22 26 27 27 28 25 21 16 15 11 13 14 15 16 15 19 13 10 13 11 15 13
28 25 21 22 19 20 21 22 21 16 10 7 8 9 13 14 16 17 16 13 14 12 13 9 9 9 15
29 27 23 17 20 20 18 15 8 4 2 4 7 10 15 19 21 21 19 15 20 15 13 21 16 9 9
31 28 24 21 20 14 9 5 2 1 3 7 11 14 17 19 20 19 18 15 14 16 11 16 14 14 18
32 28 24 21 14 10 9 7 3 3 7 10 13 15 17 19 21 21 21 19 18 17 18 16 21 18 20
Wind_Direction_500mb
125 119 117 116 112 108 100 56 74 44 25 15 11 6 359 354 350 349 344 345 347 346 347 357 3 13 24
133 125 126 128 129 118 108 85 59 15 14 357 352 352 338 338 333 330 329 331 335 337 344 357 10 22 11
132 119 132 140 153 151 156 149 128 6 310 330 353 337 332 330 329 323 324 332 342 339 343 341 348 349 342
133 103 212 152 175 134 126 20 75 192 308 310 332 352 356 354 342 345 346 353 11 8 8 11 359 328 316
168 114 34 46 24 159 243 360 6 343 315 315 352 4 5 10 10 360 4 2 350 336 328 332 337 352 320
177 124 179 300 302 344 319 325 325 335 327 312 317 325 331 334 338 337 335 336 331 324 317 315 313 295 284
189 184 173 219 262 317 274 292 276 279 282 282 291 299 305 306 306 299 310 311 313 316 323 325 324 308 287
200 194 198 218 228 244 249 254 271 270 270 279 280 283 289 293 296 292 296 304 310 318 326 335 329 304 303
208 219 215 227 229 224 244 259 263 274 271 271 273 286 287 284 287 293 291 296 308 306 311 309 313 291 297
216 224 225 229 236 240 248 264 276 283 278 277 279 285 289 291 290 291 287 293 295 303 306 291 286 284 290
213 216 218 234 250 260 265 271 285 291 291 290 281 276 278 290 287 283 288 291 297 304 298 291 287 291 291
214 219 228 244 255 267 280 288 293 296 296 293 297 304 311 314 314 310 305 306 297 311 304 300 250 271 278
213 219 227 246 262 281 295 303 305 305 300 325 350 335 312 315 314 313 309 306 290 289 293 188 186 213 268
216 222 237 251 273 285 296 304 309 323 1 341 327 322 323 327 328 332 333 307 292 292 225 215 222 229 257
220 221 225 240 258 273 275 250 196 29 344 341 340 342 342 341 336 332 329 322 300 290 264 226 211 228 209
215 214 224 240 247 231 220 216 221 330 343 349 351 349 346 341 335 331 329 323 313 298 288 263 244 217 214
Wind_Speed_850mb
16 15 13 11 9 8 6 6 7 6 8 9 10 10 11 11 12 13 13 14 16 17 17 15 15 10 8
14 12 9 7 6 6 4 3 3 2 3 7 7 9 12 13 13 13 14 16 16 17 17 16 16 7 9
14 10 7 6 5 4 3 2 1 2 2 8 6 12 13 12 12 12 14 15 18 16 17 15 13 12 12
11 2 6 5 7 4 4 3 2 1 4 7 12 17 17 19 13 12 18 19 21 20 18 17 9 8 15
7 2 12 3 2 4 4 7 5 5 3 2 15 18 20 20 19 18 21 19 18 20 21 20 16 11 14
8 7 6 4 6 13 8 9 5 7 11 13 18 19 23 22 19 17 18 18 20 22 24 23 20 17 16
12 11 9 7 7 15 5 11 14 10 14 16 18 23 25 24 22 21 20 22 26 24 22 20 19 17 18
10 12 17 18 14 11 11 19 21 24 26 24 25 26 27 26 24 25 27 29 28 23 17 16 16 14 16
26 22 22 25 23 22 24 20 19 24 26 29 31 32 31 30 27 22 24 21 20 17 19 20 19 13 21
32 27 21 21 23 26 30 32 33 29 27 27 29 29 31 32 30 28 24 21 20 21 21 22 25 26 27
28 24 22 20 20 22 26 28 28 28 29 29 30 25 24 21 14 13 17 17 19 17 12 12 18 21 21
28 25 20 19 20 22 26 27 27 28 25 21 16 15 11 13 14 15 16 15 19 13 10 13 11 15 13
28 25 21 22 19 20 21 22 21 16 10 7 8 9 13 14 16 17 16 13 14 12 13 9 9 9 15
29 27 23 17 20 20 18 15 8 4 2 4 7 10 15 19 21 21 19 15 20 15 13 21 16 9 9
31 28 24 21 20 14 9 5 2 1 3 7 11 14 17 19 20 19 18 15 14 16 11 16 14 14 18
32 28 24 21 14 10 9 7 3 3 7 10 13 15 17 19 21 21 21 19 18 17 18 16 21 18 20
Wind_Direction_850mb
125 119 117 116 112 108 100 56 74 44 25 15 11 6 359 354 350 349 344 345 347 346 347 357 3 13 24
133 125 126 128 129 118 108 85 59 15 14 357 352 352 338 338 333 330 329 331 335 337 344 357 10 22 11
132 119 132 140 153 151 156 149 128 6 310 330 353 337 332 330 329 323 324 332 342 339 343 341 348 349 342
133 103 212 152 175 134 126 20 75 192 308 310 332 352 356 354 342 345 346 353 11 8 8 11 359 328 316
168 114 34 46 24 159 243 360 6 343 315 315 352 4 5 10 10 360 4 2 350 336 328 332 337 352 320
177 124 179 300 302 344 319 325 325 335 327 312 317 325 331 334 338 337 335 336 331 324 317 315 313 295 284
189 184 173 219 262 317 274 292 276 279 282 282 291 299 305 306 306 299 310 311 313 316 323 325 324 308 287
200 194 198 218 228 244 249 254 271 270 270 279 280 283 289 293 296 292 296 304 310 318 326 335 329 304 303
208 219 215 227 229 224 244 259 263 274 271 271 273 286 287 284 287 293 291 296 308 306 311 309 313 291 297
216 224 225 229 236 240 248 264 276 283 278 277 279 285 289 291 290 291 287 293 295 303 306 291 286 284 290
213 216 218 234 250 260 265 271 285 291 291 290 281 276 278 290 287 283 288 291 297 304 298 291 287 291 291
214 219 228 244 255 267 280 288 293 296 296 293 297 304 311 314 314 310 305 306 297 311 304 300 250 271 278
213 219 227 246 262 281 295 303 305 305 300 325 350 335 312 315 314 313 309 306 290 289 293 188 186 213 268
216 222 237 251 273 285 296 304 309 323 1 341 327 322 323 327 328 332 333 307 292 292 225 215 222 229 257
220 221 225 240 258 273 275 250 196 29 344 341 340 342 342 341 336 332 329 322 300 290 264 226 211 228 209
215 214 224 240 247 231 220 216 221 330 343 349 351 349 346 341 335 331 329 323 313 298 288 263 244 217 214